THORAD AGENA D DEB, 4655

Orbit data source: Space-Track

THORAD AGENA D DEB, 4655 is space debris in SSO originally from a launch on Wed, 08 Apr 1970 UTC launched from the Air Force Western Test Range (AFWTR). Debris objects in space refer to the collection of defunct objects orbiting the Earth. Examples of debris include non-operational satellites, rocket bodies, and fragments generated from explosions, collisions, or faulty payload assembly.

Loading next visibility...
THORAD AGENA D DEB details
Identifier
4655, 1970-025AP
Orbit
SSO
Last TLE update15 hours ago
Origin
Flag of USGSFC (US)
ManufacturerUnknown
MissionSpacecraft
Bus & MotorUnknown
MassUnknown
Launch date (UTC)
1970-04-08 (55 years ago)
Launch vehicleUnknown
Launch site
Air Force Western Test Range (AFWTR)
Object type
Payload
Rocket body
Debris
Shape & HBRUnknown
Radar Cross SectionSmall (<0.1 m²)

Expand to show TLE details & history

TLE from 15 hours ago
0 THORAD AGENA D DEB
1  4655U 70025AP  25023.96433959  .00000516  00000-0  64635-3 0  9993
2  4655  99.9694 111.9247 0053963   2.3254 357.8131 13.69016540728612
Epoch: 2025-01-23T23:08Z
Definitive object data (Epoch: 2025-01-23T23:08:38.94Z)
Latitude-0.00006°
Longitude1.22815°
Altitude966.097 km
Speed7.389 km/s
True Right ascension07h 27m 41s
True Declination0° 00' 00"
Sunlit
Object was in full shadow at TLE epoch
Visualization TLE readout
Latitude-9.40101°
Longitude-179.7872°
Altitude1,046.989 km
Speed7.308 km/s
Apparent Right ascension22h 07m 29s
Apparent Declination-39° 04' 54"
Sunlit
Object is in daylight
Visualization observer readout
Local Sidereal Time15:22:01
Azimuth116.858° SE
Elevation-31.455°
Doppler factor1
Orbital elements
Apogee altitude1,040.211 km
Perigee altitude960.577 km
Semi-major axis7,378.531 km
Eccentricity0.0053963
Inclination99.9694°
RAAN111.9247°
Arg. of periapsis2.3254°
True anomaly357.78934°
Mean anomaly357.8131°
Eccentric anomaly357.80124°
Mean motion3.42443 °/min
BSTAR0.00064635
Orbital period105.13 mins
Loading maneuver chart data...

THORAD AGENA D DEB Visibility forecast

Observer location: undefined°, undefined

Span
Click to sort rows by Start time (UTC) header in descending order
Start Az.
Max El. time (UTC)
Max El. Az.
Max El.
End time (UTC)
End Az.
7 mins2025-01-24 17:18:54.640Z55.259° ENE2025-01-24 17:22:54.640Z98.801° ESE18.358°2025-01-24 17:25:54.640Z130.166° SE
10 mins2025-01-24 19:01:54.640Z6.395° NNE2025-01-24 19:06:54.640Z268.754° W42.166°2025-01-24 19:11:54.640Z210.087° SW
9 mins2025-01-25 05:05:54.640Z137.265° SSE2025-01-25 05:09:54.640Z71.438° E38.367°2025-01-25 05:14:54.640Z357.435° N
7 mins2025-01-25 06:50:54.640Z227.385° WSW2025-01-25 06:53:54.640Z264.963° W21.4°2025-01-25 06:57:54.640Z311.356° NW
|